Other Surface Observations
Issued by NWS

Home | Current Version | Previous Version | Text Only | Print | Product List | Glossary On
Versions: 1 2 3 4 5 6 7 8 9 10 11 12 13 14 15 16 17 18 19 20 21 22 23 24 25 26 27 28 29 30 31 32 33 34 35 36 37 38 39 40 41 42 43 44 45 46 47 48 49 50
824
SXUS52 KTAE 251305
OSOTAE
OSOTAE
North Florida/South Alabama/Southwest Georgia Weather Roundup
National Weather Service Tallahassee Florida
800 AM EST SAT FEB 25 2017

Note: "fair" indicates few or no clouds below 12,000 feet with no
significant weather and/or obstructions to visibility.

!FLZ017-115-028-034-025-251400
...North Florida...

CITY           SKY/WX    TMP DP  RH WIND       PRES   REMARKS
TALLAHASSEE    CLOUDY    64  63  96 S5        29.88R
APALACHICOLA   MOCLDY    64  64 100 CALM      29.89R
PERRY          FOG       61  60  97 CALM      29.92R VSB 1/2
CROSS CITY     PTSUNNY   64  64 100 S3        29.91R
JACKSONVILLE   FOG       61  61 100 SW7       29.88R VSB 1/2
$$

!FLZ112-006-005-002-011-251400
...Florida Panhandle...

CITY           SKY/WX    TMP DP  RH WIND       PRES   REMARKS
MARIANNA       CLOUDY    67  65  93 W6        29.87R
BONIFAY        NOT AVBL
PANAMA CITY NW CLOUDY    64  63  96 W14G20    29.88R
TYNDALL AFB    CLOUDY    67  65  93 W5        29.89R
TYND DRONE APT CLOUDY    67  66  96 NW6       29.89R
DE FUNIAK SPR  FAIR      63  63 100 NW9       29.90R
EGLIN AFB      PTCLDY    65  62  92 NW9       29.90R
DESTIN         CLEAR     69  68  96 NW8       29.89R
HURLBURT       PTCLDY    66  57  72 NW10      29.89R
CRESTVIEW      MOCLDY    65  59  81 NW15G21   29.91R
PENSACOLA      CLEAR     64  47  53 N16       29.92R
$$

!ALZ063-066-251400
...South Alabama...

CITY           SKY/WX    TMP DP  RH WIND       PRES   REMARKS
DOTHAN         CLOUDY    65  64  97 W7        29.90R
OZARK CAIRNS   PTCLDY    64  64 100 W7        29.87R
FT RUCKER HELI MOCLDY    66  63  90 W7        29.87R
RUCKER HELI 3  CLOUDY    65  62  90 S8        29.87R
RUCKER HELI 2  MOCLDY    65  62  90 NW6       29.86R
FLORALA APT    MOCLDY    65  59  81 NW8       29.92R
ANDALUSIA      PTCLDY    66  56  70 NW15      29.90R
TROY           CLOUDY    64  59  83 NW9       29.89R
EUFALA         MOCLDY    66  62  87 W5        29.85R
MOBILE         PTCLDY    58  37  45 NW9       29.97R
$$

!GAZ120>161-251400
...Southwest and South Central Georgia...

CITY           SKY/WX    TMP DP  RH WIND       PRES   REMARKS
THOMASVILLE    CLOUDY    63  63 100 S3        29.89R
BAINBRIDGE     CLOUDY    64  63  94 SW5       29.87S
MOODY AFB      CLOUDY    61  59  94 SW5       29.87R
VALDOSTA       CLOUDY    62  60  93 CALM      29.89R
MOULTRIE       CLOUDY    63  61  94 SW3       29.89R
BLAKELY        PTCLDY    64  63  94 CALM      29.87R
ALBANY         MOCLDY    64  62  93 SW5       29.88R
TIFTON         CLOUDY    61  61 100 SW5       29.87R
FITZGERALD     CLOUDY    62  62  99 SW6       29.89R
CORDELE        FAIR      64  62  94 SW5       29.86R
AMERICUS       CLOUDY    61  61 100 SW3       29.86R
HOMERVILLE     PTSUNNY   63  63 100 SW5       29.88R
$$

!GMZ750-755-770-775-251400
...Coastal and Buoy Obs...

STATION/POSITION TIME  TEMP    WIND        PRES    VSBY  WAVE
                       AIR SEA DIR/SP/G                  HT/PER
                 (UTC) (F)     (DEG/KT/KT) (MB)    (MI)  (FT/S)
KEATON BEACH     1200   66     310/  5/  7 1012.0R
CEDAR KEY        1200   67     270/  6/  8 1012.8R
C TOWER          1200   67     250/  7/  8 1012.4R
APALACHICOLA BUO 1150   70 69  270/  6/  8 1012.3          1
PANAMA CITY BUOY 1150   72 71              1012.2          1/ 3
MOBILE BUOY      NOT AVBL
ORANGE BCH AL BU 1150   67 69  320/ 17/ 21 1011.6          2/ 4
$$




USA.gov is the U.S. government's official web portal to all federal, state and local government web resources and services.